[[{"header":{"parameterUnit":"m.s-1","parameterCategory":1,"la1":30.2991,"la2":30.254,"lo1":-89.0895,"lo2":-89.0444,"dy":0.0017,"dx":0.0017,"nx":28,"ny":28,"refTime":"2024-05-31T09:00:00:Z","depth":0,"parameterNumber":2,"parameterNumberName":"U-component_of_WINDS"},"data":[0,0,0,0,0,0,0,0,0,0,0,0,0,0,0,0,0,0,0,0,0,0,0,0,0,0,0,0,0,0,0,0,0,0,0,0,0,0,0,0,0,0,0,0,0,0,0,0,0,0,0,0,0,0,0,0,0,0,-6.2438,-6.2439,0,-6.2539,-6.254,-6.2541,-6.2528,-6.2526,-6.2524,-6.2523,-6.2623,-6.2627,-6.2631,0,0,0,0,0,0,0,0,0,0,0,0,0,-6.2233,-6.2236,-6.2438,-6.2439,-6.2441,-6.2539,-6.254,-6.2541,-6.2528,-6.2526,-6.2524,-6.2522,-6.2621,-6.2626,-6.2631,0,0,0,0,0,0,0,0,0,0,0,0,0,-6.2326,-6.2238,-6.2438,-6.2446,-6.2448,-6.2538,-6.254,-6.2542,-6.2528,-6.2526,-6.2523,-6.2521,-6.262,-6.2626,-6.2632,-6.272,0,0,-6.2651,-6.2654,0,0,0,0,0,0,0,0,-6.2321,-6.2334,-6.2443,-6.2445,-6.2448,-6.2518,-6.2504,-6.2601,-6.2529,-6.2498,-6.2523,-6.252,-6.259,-6.2598,-6.2622,-6.2725,-6.2729,-6.2652,-6.2656,-6.2658,-6.266,0,0,0,0,0,0,0,-6.2315,-6.2329,-6.2478,-6.2445,-6.2448,-6.2444,-6.2454,-6.2523,-6.2556,-6.25,-6.2499,-6.2512,-6.259,-6.2616,-6.2625,-6.2731,-6.2652,-6.2657,-6.2661,-6.2663,-6.2911,-6.2913,0,0,0,0,0,0,-6.2306,-6.2324,-6.2475,-6.2481,-6.2377,-6.2449,-6.2461,-6.2498,-6.2555,-6.2562,-6.2514,-6.2511,-6.2607,-6.2617,-6.2628,-6.2734,-6.2658,-6.2664,-6.2668,-6.2908,-6.2911,-6.2914,0,0,0,0,0,0,-6.2302,-6.232,-6.2471,-6.2402,-6.2421,-6.2456,-6.2497,-6.2501,-6.2527,-6.2566,-6.2571,-6.2534,-6.2605,-6.2619,-6.2698,-6.2737,-6.2667,-6.2673,-6.2905,-6.2909,-6.2913,-6.2948,0,0,0,0,0,0,-6.2296,-6.2318,-6.2352,-6.2403,-6.2425,-6.2539,-6.2499,-6.2505,-6.2539,-6.2536,-6.2586,-6.2592,-6.2604,-6.2688,-6.2704,-6.2745,-6.2678,-6.2901,-6.2906,-6.2911,-6.2943,-6.2952,-6.2961,0,0,0,0,0,-6.2289,-6.2358,-6.2354,-6.2372,-6.2469,-6.2541,-6.2553,-6.2567,-6.2542,-6.2576,-6.2601,-6.2591,-6.2732,-6.2696,-6.2714,-6.2757,-6.2898,-6.2905,-6.2911,-6.2939,-6.2951,-6.296,0,0,0,0,0,0,-6.2309,-6.2364,-6.2361,-6.2449,-6.2491,-6.2539,-6.2582,-6.2579,-6.2627,-6.2622,-6.2636,-6.2648,-6.2727,-6.2751,-6.271,-6.2846,-6.2812,-6.2822,-6.2827,-6.2838,-6.2847,-6.2838,-6.2683,0,0,0,0,0,-6.2324,-6.2379,-6.2425,-6.2497,-6.2519,-6.2547,-6.2579,-6.2586,-6.263,-6.2647,-6.2677,-6.2719,-6.2773,-6.2807,-6.2859,-6.2948,-6.2958,-6.2987,-6.2995,-6.3002,-6.301,-6.3058,-6.307,-6.2935,-6.2935,-6.2935,0,0,-6.2355,-6.2392,-6.2425,-6.2502,-6.2535,-6.2591,-6.2562,-6.2622,-6.2663,-6.2656,-6.2731,-6.2755,-6.2803,-6.2887,-6.2925,-6.2909,-6.305,-6.301,-6.3016,-6.3019,-6.3065,-6.3078,-6.309,-6.2939,-6.2938,-6.2938,0,0,-6.2438,-6.2473,-6.2537,-6.2572,-6.2623,-6.2642,-6.2657,-6.2707,-6.2723,-6.28,-6.2795,-6.2845,-6.2937,-6.2971,-6.3,-6.31,-6.3091,-6.3116,-6.3161,-6.3207,-6.3218,-6.3227,-6.3261,-6.3273,-6.3124,-6.3125,-6.3125,0,-6.2469,-6.2554,-6.257,-6.2632,-6.2665,-6.2663,-6.2727,-6.276,-6.2825,-6.2848,-6.2829,-6.2946,-6.2978,-6.3069,-6.3093,-6.3118,-6.3135,-6.3108,-6.3216,-6.3225,-6.3234,-6.3266,-6.3279,-6.3127,-6.3127,-6.3126,-6.3126,0,-6.2589,-6.2648,-6.2694,-6.2758,-6.2797,-6.2859,-6.2884,-6.2922,-6.2927,-6.2948,-6.3025,-6.3065,-6.3124,-6.3147,-6.3151,-6.3239,-6.3227,-6.3213,-6.3177,-6.3249,-6.3279,-6.3292,-6.3131,-6.313,-6.3129,-6.3128,0,0,-6.2684,-6.2759,-6.2775,-6.2804,-6.2861,-6.2907,-6.297,-6.3029,-6.306,-6.3107,-6.3158,-6.3238,-6.3225,-6.3258,-6.3267,-6.3309,-6.3383,-6.3289,-6.329,-6.3302,-6.348,-6.3489,-6.3503,-6.338,-6.3383,-6.3385,-6.3475,0,-6.2772,-6.2883,-6.29,-6.2998,-6.3052,-6.3052,-6.3107,-6.3148,-6.317,-6.3219,-6.3243,-6.3298,-6.3278,-6.3298,-6.3339,-6.3365,-6.3418,-6.336,-6.3426,-6.3428,-6.3411,-6.3519,-6.3528,-6.3611,-6.3488,-6.349,-6.3491,0,-6.2887,-6.2937,-6.3041,-6.3091,-6.3115,-6.3164,-6.3219,-6.3267,-6.3314,-6.3327,-6.3365,-6.337,-6.3434,-6.34,-6.3489,-6.3448,-6.3477,-6.3495,-6.3498,-6.3502,-6.3461,-6.3522,-6.3639,-6.365,-6.351,-6.3509,-6.3507,0,-6.2944,-6.3037,-6.3111,-6.3136,-6.3198,-6.3232,-6.3259,-6.3304,-6.3338,-6.3388,-6.341,-6.3466,-6.3496,-6.3539,-6.3558,-6.3532,-6.3645,-6.3613,-6.3656,-6.3656,-6.3677,-6.3674,-6.3796,-6.3701,-6.3701,-6.3701,-6.3701,0,-6.3037,-6.3099,-6.3137,-6.3181,-6.3252,-6.3272,-6.334,-6.3367,-6.3407,-6.3456,-6.3461,-6.3507,-6.3532,-6.3582,-6.3598,-6.3668,-6.3682,-6.3693,-6.3696,-6.3691,-6.3689,-6.3707,-6.3701,-6.3704,-6.3704,-6.3703,-6.3702,0,-6.311,-6.3138,-6.3218,-6.3271,-6.3285,-6.3334,-6.3379,-6.3423,-6.3446,-6.3509,-6.3524,-6.356,-6.3619,-6.3644,-6.3717,-6.3727,-6.3807,-6.3807,-6.3791,-6.3791,-6.3832,-6.3827,-6.3967,-6.3985,-6.3881,-6.3882,-6.3883,0,-6.3166,-6.3214,-6.3273,-6.3307,-6.3335,-6.339,-6.3426,-6.3449,-6.3486,-6.3544,-6.358,-6.364,-6.3688,-6.3783,-6.3814,-6.387,-6.387,-6.3915,-6.3878,-6.3871,-6.3867,-6.3862,-6.3867,-6.392,-6.3921,-6.3922,-6.3923,0,-6.3262,-6.3274,-6.3325,-6.3383,-6.3426,-6.3472,-6.3516,-6.3544,-6.3573,-6.3615,-6.3676,-6.3714,-6.3789,-6.3847,-6.3905,-6.3933,-6.3932,-6.3935,-6.3948,-6.3941,-6.3929,-6.3933,-6.3806,-6.3931,-6.393,-6.3929,-6.3929,-6.3929,-6.3326,-6.3369,-6.3417,-6.3475,-6.3511,-6.3553,-6.3597,-6.3626,-6.3678,-6.374,-6.3751,-6.3816,-6.3863,-6.3941,-6.3971,-6.4022,-6.401,-6.4029,-6.4033,-6.4036,-6.4038,-6.3924,-6.4033,-6.4032,-6.4032,-6.4032,-6.4032,0,-6.342,-6.3452,-6.3505,-6.3568,-6.3613,-6.3612,-6.3662,-6.3699,-6.3757,-6.3801,-6.3849,-6.3919,-6.3977,-6.4015,-6.4072,-6.4106,-6.4107,-6.412,-6.4116,-6.4122,-6.4046,-6.4028,-6.4118,-6.4118,-6.4118,-6.4118,-6.4118,-6.4118,-6.3474,-6.3545,-6.3563,-6.3653,-6.3685,-6.3749,-6.3777,-6.3816,-6.3851,-6.393,-6.3978,-6.4003,-6.4044,-6.4105,-6.4158,-6.4168,-6.4187,-6.42,-6.4209,-6.4136,-6.4127,-6.4119,-6.4102,-6.4205,-6.4206,-6.428,-6.4281,-6.4281]},{"header":{"parameterUnit":"m.s-1","parameterCategory":1,"la1":30.2991,"la2":30.254,"lo1":-89.0895,"lo2":-89.0444,"dy":0.0017,"dx":0.0017,"nx":28,"ny":28,"refTime":"2024-05-31T09:00:00:Z","depth":0,"parameterNumber":3,"parameterNumberName":"V-component_of_WINDS"},"data":[0,0,0,0,0,0,0,0,0,0,0,0,0,0,0,0,0,0,0,0,0,0,0,0,0,0,0,0,0,0,0,0,0,0,0,0,0,0,0,0,0,0,0,0,0,0,0,0,0,0,0,0,0,0,0,0,0,0,3.6417,3.6418,0,3.65,3.6501,3.6502,3.6566,3.6567,3.6568,3.6568,3.6648,3.665,3.6651,0,0,0,0,0,0,0,0,0,0,0,0,0,3.6314,3.6315,3.6417,3.6418,3.6419,3.65,3.6501,3.6502,3.6566,3.6567,3.6568,3.6568,3.6648,3.665,3.6651,0,0,0,0,0,0,0,0,0,0,0,0,0,3.6373,3.6316,3.6417,3.6461,3.6466,3.6499,3.6501,3.6502,3.6566,3.6567,3.6568,3.6569,3.6647,3.6649,3.6652,3.6646,0,0,3.6659,3.666,0,0,0,0,0,0,0,0,3.637,3.6377,3.6454,3.6458,3.6464,3.6524,3.6494,3.655,3.6566,3.6528,3.6568,3.6569,3.6606,3.6611,3.6625,3.665,3.6654,3.6659,3.666,3.6661,3.6662,0,0,0,0,0,0,0,3.6366,3.6374,3.645,3.6455,3.6461,3.6476,3.6486,3.6505,3.656,3.6531,3.6536,3.6545,3.6609,3.6622,3.6627,3.6655,3.6659,3.6661,3.6662,3.6663,3.6682,3.6681,0,0,0,0,0,0,3.6355,3.637,3.6447,3.6452,3.6418,3.6477,3.6488,3.6503,3.656,3.657,3.6544,3.6548,3.6618,3.6624,3.663,3.6629,3.6661,3.6663,3.6665,3.6683,3.6682,3.6681,0,0,0,0,0,0,3.6353,3.6361,3.6444,3.6413,3.6424,3.6478,3.6495,3.6505,3.6518,3.657,3.658,3.6548,3.6619,3.6627,3.6643,3.6633,3.6664,3.6666,3.6684,3.6683,3.6681,3.6626,0,0,0,0,0,0,3.6349,3.636,3.6359,3.6412,3.6426,3.6455,3.6494,3.6505,3.6523,3.6528,3.6577,3.6585,3.662,3.6639,3.6645,3.6636,3.6668,3.6685,3.6683,3.6682,3.6629,3.6623,3.6617,0,0,0,0,0,3.6345,3.6339,3.6359,3.6368,3.6426,3.6455,3.6462,3.6504,3.6522,3.6521,3.6555,3.6584,3.6633,3.664,3.6647,3.6639,3.6686,3.6684,3.6682,3.6631,3.6624,3.6618,0,0,0,0,0,0,3.6281,3.6346,3.6369,3.638,3.6411,3.6466,3.6466,3.6495,3.6521,3.6525,3.6574,3.6584,3.6595,3.6619,3.6625,3.6638,3.6663,3.6663,3.6622,3.6616,3.661,3.6604,3.667,0,0,0,0,0,3.6268,3.6287,3.6343,3.6347,3.6362,3.6411,3.6425,3.6455,3.6489,3.6502,3.6537,3.6568,3.6591,3.6605,3.6628,3.6633,3.6644,3.6631,3.6625,3.662,3.6619,3.6625,3.6619,3.6674,3.6674,3.6674,0,0,3.6241,3.628,3.6288,3.6335,3.6363,3.6381,3.6422,3.6439,3.6453,3.6504,3.6522,3.6549,3.6587,3.6597,3.6604,3.6618,3.6607,3.6618,3.6614,3.6615,3.6622,3.6617,3.6612,3.6673,3.6673,3.6674,0,0,3.6202,3.6233,3.6241,3.6269,3.6312,3.6345,3.6346,3.6397,3.6417,3.6436,3.6476,3.6493,3.653,3.6557,3.6575,3.6548,3.6576,3.6554,3.6525,3.6529,3.6525,3.6521,3.6513,3.6509,3.6553,3.6553,3.6553,0,3.6163,3.6194,3.624,3.6256,3.6276,3.6326,3.6333,3.6358,3.6405,3.6417,3.6433,3.6483,3.6512,3.653,3.6523,3.6536,3.654,3.6548,3.6522,3.6519,3.6516,3.6508,3.6505,3.655,3.655,3.655,3.6551,0,3.6144,3.6164,3.6165,3.6212,3.6232,3.6243,3.6291,3.6305,3.6334,3.6365,3.6384,3.6421,3.6454,3.6461,3.6487,3.6483,3.649,3.6513,3.6539,3.6507,3.6501,3.6498,3.6546,3.6547,3.6548,3.6548,0,0,3.6065,3.614,3.6139,3.6162,3.6214,3.623,3.6244,3.6278,3.6289,3.6321,3.6334,3.6366,3.6388,3.6409,3.6439,3.6443,3.6421,3.6466,3.6468,3.6457,3.6419,3.6402,3.6397,3.6441,3.644,3.644,3.6416,0,3.6034,3.6064,3.6107,3.6122,3.6142,3.619,3.6203,3.6235,3.6266,3.6286,3.6319,3.6341,3.6369,3.6382,3.6388,3.6422,3.6414,3.6425,3.6453,3.6453,3.6442,3.6394,3.6375,3.6351,3.6414,3.6413,3.6413,0,3.6002,3.6033,3.605,3.6103,3.6113,3.6123,3.6159,3.6178,3.6216,3.6238,3.6262,3.6296,3.6313,3.6338,3.6362,3.6368,3.6382,3.6401,3.6401,3.6405,3.6431,3.6396,3.6344,3.634,3.6409,3.641,3.641,0,3.5944,3.599,3.6007,3.6024,3.6085,3.6092,3.6117,3.6157,3.6175,3.6206,3.6218,3.625,3.6267,3.629,3.6332,3.6346,3.6352,3.6379,3.637,3.6369,3.6369,3.6368,3.6318,3.6378,3.6378,3.6378,3.6378,0,3.5905,3.5914,3.5982,3.5991,3.6003,3.6053,3.6062,3.6092,3.6128,3.6144,3.6188,3.6202,3.6256,3.6277,3.6309,3.6325,3.6332,3.635,3.6359,3.6346,3.6344,3.6356,3.6359,3.6377,3.6377,3.6377,3.6378,0,3.5841,3.5887,3.5909,3.5966,3.598,3.5986,3.6035,3.6046,3.608,3.61,3.6108,3.616,3.6187,3.6231,3.627,3.6292,3.6302,3.6316,3.6289,3.6294,3.6283,3.6283,3.6238,3.6235,3.6296,3.6296,3.6295,0,3.5814,3.5822,3.588,3.5896,3.592,3.5943,3.5963,3.6013,3.6031,3.6077,3.6083,3.6114,3.6141,3.6181,3.6222,3.6252,3.6268,3.625,3.6272,3.626,3.6268,3.6267,3.6268,3.6244,3.6243,3.6243,3.6242,0,3.576,3.5783,3.581,3.5845,3.5868,3.5897,3.5929,3.5939,3.5995,3.6014,3.6043,3.6064,3.6105,3.6135,3.6172,3.6198,3.6229,3.6235,3.6235,3.6222,3.6206,3.6215,3.6275,3.6235,3.6236,3.6237,3.6237,3.6237,3.5714,3.5724,3.5768,3.5797,3.5826,3.5856,3.587,3.5906,3.5932,3.597,3.5998,3.6025,3.6065,3.6118,3.6142,3.6163,3.6177,3.6176,3.6176,3.6175,3.6171,3.6203,3.617,3.617,3.6171,3.6171,3.6171,0,3.5663,3.5694,3.572,3.5765,3.5788,3.5817,3.5855,3.5871,3.5895,3.593,3.5957,3.5991,3.6021,3.6064,3.6098,3.6107,3.6122,3.6114,3.6113,3.6119,3.6156,3.6154,3.6101,3.6101,3.6101,3.6101,3.6101,3.6101,3.5639,3.5658,3.5686,3.5721,3.5752,3.578,3.5799,3.5826,3.5855,3.5891,3.5917,3.5946,3.5985,3.6021,3.605,3.6062,3.6072,3.6059,3.6076,3.611,3.6116,3.6122,3.612,3.6061,3.6061,3.6037,3.6036,3.6036]}]]